Weather in Boromlia

Ukraine / Sumi District     50°37′37″N   34°58′23″E
temp.,
°C
wind,
m/s
gust,
m/s
humid.,
%
clouds,
%
prec.,
mm/h
press.,
hPa
HPBL,
m
27 october, wed
wed2700:00+2ssw411567 0.0 1029201
03:00+1ssw4105742 0.0 1028189
06:00+1ssw412545 0.0 1027231
09:00+2ssw513560 0.0 1026354
12:00+8sw710590 0.0 1025756
15:00+10wsw686059 0.0 10231094
18:00+8wsw48677 0.0 1023332
21:00+7wsw377338 0.0 1023229
28 october, thu
thu2800:00+5w358123 0.0 102484
03:00+4w3486100 0.0 102369
06:00+4wsw3791100 0.0 1022131
09:00+6sw41086100 0.4 1022312
12:00+7wsw61279100 0.4 1021486
15:00+10w51078100 0.5 1020633
18:00+8wnw498994 0.1 1021395
21:00+8nw4990100 0.1 1022375
29 october, fri
fri2900:00+7nw359525 0.0 1023102
03:00+6n35955 0.0 1025107
06:00+4n34915 0.0 102679
09:00+5nne26825 0.0 1028164
12:00+10ene34660 0.0 1029623
15:00+12e23582 0.0 1029952
18:00+8e22720 0.0 103012
21:00+6ese34830 0.0 103165
30 october, sat
sat3000:00+5se35900 0.0 103276
03:00+4se34910 0.0 103255
06:00+4sse33930 0.0 103344
09:00+5sse25895 0.0 1033131
12:00+10sse34650 0.0 1033492
15:00+12sse34550 0.0 1032780
18:00+8se33670 0.0 103227
21:00+7sse34690 0.0 103254
31 october, sun
sun3100:00+6sse33720 0.0 103337
03:00+5sse33760 0.0 103328
05:00+4se33810 0.0 103230
08:00+5se36790 0.0 1032153
11:00+11se46590 0.0 1031536
14:00+12se45480 0.0 1028735
17:00+8ese35620 0.0 102882
20:00+7ese49720 0.0 1028162